Starlink 2476

operational
NORAD ID: 48134 Int'l Des: 2021-027 Owner: SPXS Country: US Constellation: starlink
LEOCIRCULARSTARLINK_TYPE

Über Starlink 2476

Beschreibung wird geladen...

Live-Position

3D-Globus wird geladen...

Nächste Überflüge

Höhenverlauf

Altitude vs Time

uPlot chart will show altitude changes over time

Zweizeiliger Elementsatz

1 48134U 21027AU 25259.34480490 .00001335 00000-0 10847-3 0 9992
2 48134 53.0537 234.2840 0001405 87.9492 272.1658 15.06408641246139
Epoch: 16. Sept. 2025 • Age: 15 hours

Aktueller Status

Höhe 551.3 km
Geschwindigkeit 7.59 km/s
Subsatellitenpunkt 46.31°N, 56.42°W
Startdatum 7. Apr. 2021
Alter 4.4 years
Typ internet

Technische Details

Klassifizierung Payload
Masse 260.00 kg
Trockenmasse 248.00 kg
Gesamtmasse 260.00 kg
Länge 0.20 m
Durchmesser 2.80 m
Spannweite 9.00 m
Form Box + pan
Hersteller SPXS
Bus-Typ Starlink
Phasenstatus In Orbit
Besitzer/Staat SPXS/US

Große Konstellationen

Loading constellations...